sat.trackr.live / text

‹ back to catalog

STARLINK-3881

NORAD 52472 · 2022-049X

PAYLOAD ACTIVE UNKNOWN

§ Identity

Operator
Country
US
Launch date
2022-05-06
Launch site
AFETR
Launch vehicle
Mass (kg)
RCS (m²)

Purposes: comms

External: N2YO · Heavens-Above · Gunter

§ Orbital elements

Epoch: 2026-09-19T23:23:28.929696Z

Period
93.90 min
Inclination
53.1587°
Eccentricity
0.0001262
Mean motion
15.33542236 rev/d
Perigee alt
464.4 km
Apogee alt
466.1 km
Semi-major
6,843.4 km
B*
3.0934e-5
RAAN
256.3314°
Arg perigee
91.0884°
Mean anomaly
269.0263°
Rev number
24,172

§ Raw data

STARLINK-38811 52472U 22049X   26262.97464039  .00000645  00000+0  30934-4 0  99942 52472  53.1587 256.3314 0001262  91.0884 269.0263 15.33542236241724

JSON: /api/v1/satellites/52472 · /tle

For live sub-satellite position, see the globe view (requires WebGL).

§ Visibility from observer

Set your observer location to see the next 7 days of passes ≥ 10°. The values pass through the URL so the page stays shareable.

No JS? Fill the form by hand. The geolocation button needs JavaScript.